• In Belarus
  • List of Countries
  • For 7 days
  • Water Temperature
  • Satellite Maps
  • Weather Map
  • Weather Widgets
  • user-avatar
    Login

    Hourly Weather Ischgl

    Today, 22 November, Wednesday

    Time Temperature Precipitation Wind Pressure Humidity
    00:00 -6°C° 0 mm 2 mps 571 mmHg 75%
    01:00 -6°C° 0 mm 2 mps 571 mmHg 73%
    02:00 -6°C° 0 mm 2 mps 571 mmHg 72%
    03:00 -6°C° 0 mm 2 mps 571 mmHg 71%
    04:00 -7°C° 0 mm 2 mps 571 mmHg 69%
    05:00 -7°C° 0 mm 2 mps 571 mmHg 68%
    06:00 -7°C° 0 mm 2 mps 571 mmHg 67%
    07:00 -7°C° 0 mm 2 mps 571 mmHg 66%
    08:00 -5°C° 0 mm 2 mps 571 mmHg 68%
    09:00 -3°C° 0 mm 2 mps 572 mmHg 69%
    10:00 -2°C° 0 mm 2 mps 573 mmHg 71%
    11:00 -1°C° 0 mm 2 mps 573 mmHg 75%
    12:00 +1°C° 0 mm 2 mps 573 mmHg 80%
    13:00 +2°C° 0 mm 2 mps 573 mmHg 85%
    14:00 -1°C° 0 mm 2 mps 573 mmHg 83%
    15:00 -2°C° 0 mm 2 mps 572 mmHg 81%
    16:00 -3°C° 0 mm 2 mps 572 mmHg 80%
    17:00 -4°C° 0 mm 2 mps 571 mmHg 80%
    18:00 -5°C° 0 mm 2 mps 571 mmHg 80%
    19:00 -7°C° 0 mm 3 mps 570 mmHg 80%
    20:00 -7°C° 0 mm 3 mps 570 mmHg 79%
    21:00 -7°C° 0 mm 3 mps 570 mmHg 79%
    22:00 -7°C° 0 mm 3 mps 570 mmHg 78%
    23:00 -7°C° 0 mm 3 mps 570 mmHg 78%

    Tomorrow, 23 November, Thursday

    Time Temperature Precipitation Wind Pressure Humidity
    00:00 -8°C° 0 mm 3 mps 570 mmHg 78%
    01:00 -8°C° 0 mm 3 mps 570 mmHg 77%
    02:00 -8°C° 0 mm 3 mps 570 mmHg 77%
    03:00 -8°C° 0 mm 3 mps 570 mmHg 77%
    04:00 -8°C° 0 mm 3 mps 569 mmHg 77%
    05:00 -8°C° 0 mm 3 mps 570 mmHg 77%
    06:00 -9°C° 0 mm 3 mps 570 mmHg 77%
    07:00 -9°C° 0 mm 3 mps 570 mmHg 77%
    08:00 -7°C° 0 mm 3 mps 571 mmHg 76%
    09:00 -5°C° 0 mm 2 mps 571 mmHg 76%
    10:00 -3°C° 0 mm 2 mps 572 mmHg 76%
    11:00 -2°C° 0 mm 2 mps 573 mmHg 79%
    12:00 -1°C° 0 mm 2 mps 573 mmHg 82%
    13:00 +2°C° 0 mm 1 mps 573 mmHg 85%
    14:00 +1°C° 0 mm 1 mps 573 mmHg 83%
    15:00 0°C° 0 mm 1 mps 573 mmHg 82%
    16:00 -2°C° 0 mm 1 mps 572 mmHg 81%
    17:00 -3°C° 0 mm 1 mps 572 mmHg 79%
    18:00 -4°C° 0 mm 1 mps 572 mmHg 78%
    19:00 -6°C° 0 mm 1 mps 572 mmHg 77%
    20:00 -6°C° 0 mm 1 mps 572 mmHg 74%
    21:00 -6°C° 0 mm 1 mps 572 mmHg 71%
    22:00 -6°C° 0 mm 1 mps 572 mmHg 68%
    23:00 -7°C° 0 mm 2 mps 572 mmHg 67%

    Day after tomorrow, 24 November, Friday

    Time Temperature Precipitation Wind Pressure Humidity
    00:00 -7°C° 0 mm 2 mps 572 mmHg 67%
    01:00 -7°C° 0 mm 2 mps 572 mmHg 66%
    02:00 -7°C° 0 mm 2 mps 572 mmHg 68%
    03:00 -7°C° 0 mm 2 mps 572 mmHg 69%
    04:00 -7°C° 0 mm 2 mps 572 mmHg 71%
    05:00 -8°C° 0 mm 3 mps 572 mmHg 72%
    06:00 -8°C° 0 mm 3 mps 572 mmHg 73%
    07:00 -8°C° 0 mm 3 mps 573 mmHg 74%
    08:00 -6°C° 0 mm 3 mps 573 mmHg 75%
    09:00 -5°C° 0 mm 3 mps 574 mmHg 75%
    10:00 -4°C° 0 mm 3 mps 574 mmHg 75%
    11:00 -2°C° 0 mm 3 mps 574 mmHg 77%
    12:00 -2°C° 0 mm 3 mps 574 mmHg 79%
    13:00 -1°C° 0 mm 3 mps 574 mmHg 80%
    14:00 -2°C° 0 mm 3 mps 574 mmHg 82%
    15:00 -2°C° 0 mm 2 mps 573 mmHg 83%
    16:00 -3°C° 0 mm 2 mps 573 mmHg 84%
    17:00 -4°C° 0 mm 2 mps 572 mmHg 85%
    18:00 -6°C° 0 mm 3 mps 572 mmHg 85%
    19:00 -7°C° 0 mm 3 mps 572 mmHg 86%
    20:00 -7°C° 0 mm 3 mps 572 mmHg 85%
    21:00 -7°C° 0 mm 3 mps 572 mmHg 85%
    22:00 -6°C° 0 mm 3 mps 572 mmHg 85%
    23:00 -6°C° 0 mm 3 mps 572 mmHg 85%

    25 November, Saturday

    Time Temperature Precipitation Wind Pressure Humidity
    00:00 -6°C° 0 mm 3 mps 571 mmHg 86%
    01:00 -6°C° 0 mm 3 mps 571 mmHg 87%
    02:00 -6°C° 0 mm 3 mps 571 mmHg 87%
    03:00 -6°C° 0 mm 3 mps 570 mmHg 88%
    04:00 -6°C° 0 mm 3 mps 570 mmHg 88%
    05:00 -5°C° 0.1 mm 4 mps 570 mmHg 88%
    06:00 -5°C° 0.1 mm 4 mps 570 mmHg 88%
    07:00 -5°C° 0.1 mm 4 mps 569 mmHg 88%
    08:00 -4°C° 0.1 mm 4 mps 570 mmHg 88%
    09:00 -4°C° 0.1 mm 4 mps 570 mmHg 88%
    10:00 -3°C° 0.1 mm 4 mps 570 mmHg 88%
    11:00 -2°C° 0.9 mm 3 mps 570 mmHg 90%
    12:00 -4°C° 0.9 mm 3 mps 570 mmHg 93%
    13:00 -4°C° 0.9 mm 3 mps 570 mmHg 95%
    14:00 -5°C° 1.7 mm 3 mps 570 mmHg 96%
    15:00 -4°C° 1.7 mm 2 mps 570 mmHg 96%
    16:00 -5°C° 1.7 mm 2 mps 570 mmHg 96%
    17:00 -6°C° 1.1 mm 2 mps 570 mmHg 96%
    18:00 -6°C° 1.1 mm 2 mps 570 mmHg 96%
    19:00 -7°C° 1.1 mm 2 mps 570 mmHg 96%
    20:00 -7°C° 0.4 mm 2 mps 570 mmHg 96%
    21:00 -8°C° 0.4 mm 2 mps 570 mmHg 96%
    22:00 -8°C° 0.4 mm 2 mps 570 mmHg 95%
    23:00 -8°C° 0.2 mm 2 mps 570 mmHg 95%

    26 November, Sunday

    Time Temperature Precipitation Wind Pressure Humidity
    00:00 -9°C° 0.2 mm 2 mps 570 mmHg 95%
    01:00 -9°C° 0.2 mm 2 mps 569 mmHg 95%
    02:00 -10°C° 0.2 mm 2 mps 569 mmHg 95%
    03:00 -10°C° 0.2 mm 2 mps 569 mmHg 95%
    04:00 -10°C° 0.2 mm 2 mps 569 mmHg 95%
    05:00 -12°C° 0.1 mm 2 mps 569 mmHg 95%
    06:00 -12°C° 0.1 mm 2 mps 569 mmHg 95%
    07:00 -12°C° 0.1 mm 2 mps 569 mmHg 95%
    08:00 -12°C° 0.1 mm 2 mps 569 mmHg 93%
    09:00 -12°C° 0.1 mm 2 mps 570 mmHg 91%
    10:00 -10°C° 0.1 mm 2 mps 570 mmHg 89%
    11:00 -12°C° 0 mm 3 mps 570 mmHg 86%
    12:00 -12°C° 0 mm 3 mps 570 mmHg 84%
    13:00 -10°C° 0 mm 3 mps 570 mmHg 82%
    14:00 -12°C° 0 mm 3 mps 570 mmHg 84%
    15:00 -12°C° 0 mm 2 mps 570 mmHg 86%
    16:00 -13°C° 0 mm 2 mps 570 mmHg 88%
    17:00 -14°C° 0 mm 2 mps 569 mmHg 90%
    18:00 -15°C° 0 mm 2 mps 569 mmHg 91%
    19:00 -17°C° 0 mm 2 mps 569 mmHg 92%
    20:00 -17°C° 0 mm 2 mps 569 mmHg 91%
    21:00 -18°C° 0 mm 2 mps 569 mmHg 90%
    22:00 -18°C° 0 mm 2 mps 569 mmHg 89%
    23:00 -18°C° 0 mm 2 mps 569 mmHg 88%

    27 November, Monday

    Time Temperature Precipitation Wind Pressure Humidity
    00:00 -18°C° 0 mm 2 mps 569 mmHg 87%
    01:00 -18°C° 0 mm 2 mps 569 mmHg 86%
    02:00 -18°C° 0 mm 2 mps 569 mmHg 87%
    03:00 -18°C° 0 mm 2 mps 569 mmHg 87%
    04:00 -18°C° 0 mm 2 mps 569 mmHg 87%
    05:00 -18°C° 0 mm 2 mps 570 mmHg 86%
    06:00 -18°C° 0 mm 2 mps 570 mmHg 85%
    07:00 -18°C° 0 mm 2 mps 570 mmHg 84%
    08:00 -16°C° 0 mm 2 mps 571 mmHg 82%
    09:00 -14°C° 0 mm 2 mps 572 mmHg 79%
    10:00 -13°C° 0 mm 2 mps 573 mmHg 77%
    11:00 -9°C° 0 mm 1 mps 573 mmHg 72%
    12:00 -8°C° 0 mm 1 mps 574 mmHg 68%
    13:00 -7°C° 0 mm 1 mps 574 mmHg 64%
    14:00 -8°C° 0 mm 1 mps 573 mmHg 67%
    15:00 -9°C° 0 mm 1 mps 572 mmHg 69%
    16:00 -10°C° 0 mm 1 mps 572 mmHg 72%
    17:00 -11°C° 0 mm 1 mps 571 mmHg 70%
    18:00 -13°C° 0 mm 2 mps 571 mmHg 68%
    19:00 -14°C° 0 mm 2 mps 570 mmHg 67%
    20:00 -15°C° 0 mm 3 mps 570 mmHg 66%
    21:00 -15°C° 0 mm 3 mps 570 mmHg 65%
    22:00 -15°C° 0 mm 3 mps 570 mmHg 65%
    23:00 -15°C° 0 mm 3 mps 570 mmHg 66%
    Show more